Regional Weather Roundup
Issued by NWS

Home | Current Version | Previous Version | Text Only | Print | Product List | Glossary Off
Versions: 1 2 3 4 5 6 7 8 9 10 11 12 13 14 15 16 17 18 19 20 21 22 23 24 25 26 27 28 29 30 31 32 33 34 35 36 37 38 39 40 41 42 43 44 45 46 47 48 49 50

000
ASUS43 KFSD 251810
RWRSD

WEATHER ROUNDUP FOR SOUTH DAKOTA
NATIONAL WEATHER SERVICE SIOUX FALLS SD
1200 PM CST SAT FEB 25 2017

NOTE: "FAIR" INDICATES FEW OR NO CLOUDS BELOW 12,000 FEET WITH NO
SIGNIFICANT WEATHER AND/OR OBSTRUCTIONS TO VISIBILITY.


SDZ001>005-009-010-012>017-251900-
NORTHWEST AND NORTH CENTRAL SOUTH DAKOTA

CITY           SKY/WX    TMP DP  RH WIND       PRES   REMARKS
BUFFALO          N/A     31  16  54 W18       29.75F WCI  19
FAITH            N/A     32  20  61 W16       29.82F WCI  21
MOBRIDGE       MOSUNNY   38  20  48 S8        29.81F
$$

SDZ012>016-024>037-041>051-057-063-072>074-251900-
SOUTHWEST AND SOUTH CENTRAL SOUTH DAKOTA

CITY           SKY/WX    TMP DP  RH WIND       PRES   REMARKS
RAPID CTY ARPT SUNNY     32  21  64 N7        29.85F WCI  26
PIERRE         MOSUNNY   32  19  58 W7        29.87F WCI  26
CUSTER         MOSUNNY   25   9  50 W15       29.75F WCI  13
ELLSWORTH AFB  SUNNY     32  21  64 N13       29.84F WCI  22
PHILIP         FLURRIES  33  24  69 W14       29.88F WCI  23
PINE RIDGE     SUNNY     24  18  77 W13G21    29.89F WCI  12
SPEARFISH      FAIR      28  14  54 W15G21    29.82F WCI  17
WINNER         FAIR      24  15  68 SW12      29.91F WCI  13
$$

SDZ004>011-016>023-039-040-251900-
NORTHEAST SOUTH DAKOTA

CITY           SKY/WX    TMP DP  RH WIND       PRES   REMARKS
ABERDEEN       SUNNY     33  17  51 SW16G22   29.88F WCI  23
WATERTOWN      SUNNY     30  16  56 SW21      29.89F WCI  17
BROOKINGS      CLOUDY    29  18  63 SW15      29.93F WCI  18
SISSETON         N/A     33  18  53 W16       29.87F WCI  23
$$

SDZ017-020-022-023-036>040-048>070-251900-
SOUTHEAST SOUTH DAKOTA

CITY           SKY/WX    TMP DP  RH WIND       PRES   REMARKS
SIOUX FALLS    CLOUDY    24  17  74 SW9       30.00F WCI  14
HURON          CLOUDY    33  16  49 S10G21    29.93F WCI  25
CHAMBERLAIN    SUNNY     32  20  60 SW12      29.91F WCI  23
MITCHELL       PTSUNNY   29  16  58 SW15      29.97F WCI  18
YANKTON        CLOUDY    25  12  58 S9        30.02F WCI  15
$$

ABBREVIATIONS USED IN REMARKS
   TC - TEMPERATURE IN CELSIUS
  WCI - WIND CHILL INDEX
   HX - HEAT INDEX
  VSB - VISIBILITY





USA.gov is the U.S. government's official web portal to all federal, state and local government web resources and services.